Theta_e
307 307 308 309 310 309 310 310 310 310 310 309 310 311 311 312 313 314 314 315 316 317 317 316 315 315 315 313 308 306 310 312 311 313 315 315 314 315 316 317 319 319 320 321 322 324 323 322 322 321 324 324 325 327 323 326 331 332 338 340 340 342 342 339 339 335 330 333 331 323 322 325 324 321 319 319 325 329 327 335 337 332 330 328 328 326 328 332
307 307 307 308 309 309 309 309 310 310 310 310 310 311 311 311 312 312 313 314 315 316 317 317 316 315 314 314 310 308 310 312 312 313 311 307 307 311 313 314 317 318 319 320 322 324 324 325 323 325 331 328 327 326 325 326 326 335 341 338 341 345 342 338 338 335 328 327 327 324 323 324 324 323 320 320 325 328 326 329 334 336 333 329 327 327 330 331
306 306 306 307 307 308 309 309 309 309 309 310 310 310 311 311 312 312 313 313 314 315 316 317 316 315 314 314 312 308 310 312 311 310 309 310 310 308 308 311 314 317 319 319 322 323 324 326 322 327 333 329 332 329 327 328 325 336 338 337 345 344 339 337 336 335 329 324 324 324 323 322 323 322 320 322 326 325 329 329 328 335 343 340 329 326 329 331
306 306 307 306 306 306 308 308 308 308 309 309 310 310 311 311 312 312 312 313 313 314 316 316 316 316 314 314 312 309 311 309 306 311 318 322 319 314 310 309 311 314 317 318 321 323 324 325 322 329 332 330 337 330 328 331 327 333 333 338 346 338 335 338 338 338 331 322 322 324 323 322 322 321 320 324 327 325 328 329 328 333 346 346 331 326 329 329
306 306 306 307 306 306 307 307 307 308 308 309 309 310 310 310 311 312 312 312 313 313 315 316 316 315 315 314 311 310 310 305 307 317 322 323 322 321 318 315 316 317 320 321 323 324 324 323 322 329 332 332 336 330 334 335 327 332 331 336 342 334 332 335 339 338 330 323 323 325 323 322 321 320 324 326 327 329 327 326 329 330 341 345 333 327 327 328
305 305 305 306 306 306 306 306 307 307 307 308 309 309 310 310 311 312 312 311 312 313 314 315 316 315 315 314 311 311 310 305 313 322 321 321 320 320 319 318 319 320 323 324 324 324 323 322 323 333 335 334 334 331 338 335 325 331 332 334 339 335 332 334 337 334 330 327 326 326 322 322 322 322 325 324 326 330 325 323 325 324 331 334 328 327 329 330
305 305 305 305 305 306 306 306 305 306 306 307 308 309 309 310 310 311 311 311 312 312 313 314 316 315 314 314 312 312 312 309 313 321 322 321 319 317 315 315 317 320 324 324 325 324 324 323 323 332 337 335 334 333 336 333 326 329 331 335 337 333 332 333 334 334 331 329 328 325 321 323 326 325 321 321 326 326 324 322 320 320 324 327 328 330 331 329
304 304 305 305 305 305 305 305 305 305 305 306 307 307 308 309 310 310 311 311 311 312 313 313 315 315 314 314 313 312 312 310 308 313 318 317 316 314 311 312 315 320 325 325 325 324 324 325 324 326 331 332 332 331 333 331 329 330 331 337 336 332 334 334 334 335 333 331 330 325 322 327 327 324 322 324 327 324 330 333 329 327 329 330 332 333 330 329
303 304 305 305 305 304 305 305 305 305 305 305 306 306 308 309 310 310 310 311 311 312 313 313 314 315 315 314 312 311 310 309 307 309 308 307 308 306 307 310 313 318 325 325 324 324 324 325 325 324 326 328 328 330 331 330 330 331 331 336 336 333 335 333 332 335 334 332 329 325 327 330 326 324 326 332 333 329 338 345 337 335 338 334 333 332 330 331
303 303 304 305 304 304 304 304 305 305 305 305 305 306 307 308 309 309 309 311 311 311 312 312 313 315 315 313 312 311 310 308 308 308 306 305 304 304 307 310 314 319 324 326 324 324 324 323 323 322 323 327 326 327 330 329 328 329 330 332 333 332 332 330 332 335 332 330 329 327 330 331 327 326 329 334 333 333 345 351 338 338 344 336 333 331 327 329
304 304 304 304 304 304 304 305 305 305 305 306 306 305 306 307 308 309 309 310 310 311 311 312 313 314 315 313 312 312 311 309 309 309 306 307 307 308 310 312 315 320 323 325 324 324 324 322 320 320 323 325 324 325 328 327 325 328 329 328 331 333 331 328 330 333 329 330 332 329 329 330 327 329 334 334 329 331 347 357 344 342 344 335 332 331 327 327
304 304 304 304 304 304 304 304 305 305 305 306 306 305 306 307 308 308 308 309 310 310 311 311 312 314 314 314 313 311 311 311 312 311 310 311 312 313 313 314 317 320 322 324 324 324 324 323 321 323 324 322 323 323 324 322 321 326 329 330 332 330 331 330 330 333 329 330 332 329 329 331 329 332 337 334 326 326 339 354 351 345 341 335 333 331 329 327
304 304 304 304 304 304 304 304 305 305 305 305 305 306 306 306 307 307 308 309 310 310 311 311 312 313 314 315 313 311 312 312 310 310 311 312 313 314 314 314 317 320 322 323 324 324 324 324 323 325 324 323 326 322 321 322 321 324 327 330 333 330 332 331 328 333 330 329 332 330 331 334 332 332 333 332 327 324 331 342 346 344 339 334 333 332 332 329
303 303 304 304 304 304 304 304 305 305 305 305 305 306 306 306 307 307 308 308 309 310 310 311 312 313 314 315 312 311 312 311 310 309 309 309 309 310 312 314 318 322 323 324 324 323 324 324 323 324 324 325 328 323 325 329 326 326 326 328 333 333 335 333 328 332 330 328 332 330 331 335 336 334 330 330 328 326 329 331 334 337 335 333 333 332 332 330
303 303 304 304 304 304 304 304 305 305 305 305 305 305 306 306 307 307 308 308 309 310 310 310 311 312 314 315 312 311 311 309 309 310 310 310 307 306 310 314 318 322 324 325 324 323 324 324 324 326 325 325 326 326 330 332 328 328 328 329 333 331 333 333 329 330 330 329 329 330 334 336 337 338 334 329 328 328 330 329 327 329 330 330 330 329 330 330
303 303 303 304 304 304 304 304 304 305 305 305 305 306 306 306 307 307 308 308 308 309 309 310 311 311 313 313 311 310 310 309 309 310 310 310 308 306 307 309 314 321 325 324 324 323 322 323 324 325 326 325 327 329 330 329 327 327 328 330 332 329 330 331 327 327 330 330 328 328 336 339 336 336 337 331 328 330 330 330 327 326 327 326 326 326 327 328
304 304 304 304 304 303 304 304 304 305 305 305 305 306 306 306 307 307 307 307 308 309 309 310 311 311 312 311 310 310 309 309 309 309 309 308 308 306 305 310 316 321 322 321 322 322 322 324 325 325 326 327 328 329 328 328 328 327 327 328 328 328 328 327 326 325 327 331 330 328 332 338 338 338 338 331 328 331 331 330 329 327 326 325 325 324 323 324
305 305 305 305 305 304 304 304 304 304 304 305 305 306 306 306 306 306 307 307 307 308 308 309 310 310 312 311 310 310 308 308 309 308 308 307 307 305 305 312 319 321 321 321 322 323 323 324 325 327 328 327 328 328 326 325 325 325 327 327 326 327 326 327 328 327 326 330 332 331 330 332 336 338 338 332 328 329 330 330 329 328 327 326 325 325 323 322
306 306 306 305 305 305 305 305 304 304 304 305 305 306 305 305 305 305 306 306 306 307 308 309 309 310 311 311 309 308 307 307 308 307 307 307 306 306 307 311 318 320 322 323 323 324 324 324 326 328 329 327 327 326 323 321 322 323 324 326 326 325 325 327 332 330 327 329 331 332 331 329 330 332 333 332 328 328 329 328 328 328 327 327 326 324 323 323
306 306 306 306 306 305 305 305 305 305 305 305 305 305 305 305 305 305 306 306 306 306 308 308 309 310 310 309 308 307 307 307 307 307 307 307 306 308 312 315 318 320 321 323 324 324 324 326 328 328 328 326 325 325 323 323 323 321 321 323 326 326 325 326 332 330 326 330 331 330 330 330 329 328 328 329 329 329 329 327 328 328 327 327 327 326 324 324
305 305 306 306 306 306 306 306 305 305 305 305 305 304 305 304 304 305 306 306 306 305 307 307 307 309 309 308 307 307 309 308 307 308 307 308 307 308 313 316 317 319 320 322 323 323 324 327 328 326 325 324 324 324 324 324 323 322 322 323 325 326 324 325 328 328 325 328 330 330 331 329 328 328 327 327 328 329 328 328 328 328 328 326 326 327 325 324
304 304 305 305 306 306 306 306 306 306 305 305 304 304 304 304 304 305 305 306 306 305 306 306 306 307 307 308 308 307 309 309 308 309 310 311 308 305 312 316 315 317 319 321 322 324 327 328 326 324 324 323 323 323 324 324 324 324 323 322 323 324 324 325 327 325 322 326 331 331 330 328 328 328 328 328 327 326 326 326 326 326 327 326 326 327 326 325
304 304 304 305 305 306 306 307 307 306 305 304 304 304 304 304 304 305 304 305 306 306 307 306 306 307 306 307 308 307 309 310 309 310 311 312 310 307 313 315 315 316 318 321 323 324 327 327 324 324 324 323 323 322 324 325 325 325 324 322 321 323 324 324 325 323 321 326 329 327 327 326 326 325 325 324 323 323 325 325 325 325 326 326 327 327 326 326
304 304 304 305 305 306 307 306 306 306 305 305 305 304 304 304 304 304 304 304 305 306 307 307 306 307 306 306 308 308 308 308 309 310 311 313 312 312 315 314 314 316 317 319 322 323 325 326 324 324 324 323 323 323 324 325 325 324 324 323 322 323 324 322 324 324 322 323 322 322 326 325 324 324 322 321 321 321 322 324 324 324 324 325 326 326 326 325
303 304 304 305 305 306 306 305 305 305 306 305 305 305 304 304 304 304 304 303 305 305 305 306 307 308 307 307 308 309 309 308 308 309 311 313 312 312 315 314 314 315 316 317 321 323 323 324 325 325 324 323 322 323 323 324 325 324 324 324 322 323 324 322 323 323 324 326 323 323 328 327 324 325 323 321 323 322 321 322 323 323 323 324 324 324 324 324
303 303 304 305 305 305 305 304 304 305 305 305 305 305 305 304 304 303 303 303 304 305 305 306 308 309 308 307 308 309 309 309 309 309 312 313 312 312 314 315 315 314 314 316 320 322 321 323 326 325 324 324 323 323 323 323 324 324 323 323 322 323 324 324 324 324 327 328 322 322 327 328 325 325 324 321 322 321 321 322 322 320 321 322 322 322 323 323
303 303 304 305 304 304 305 304 304 305 305 305 305 305 304 305 303 301 302 303 304 306 307 306 306 307 308 308 308 308 310 310 309 310 313 313 312 312 313 314 315 314 315 317 319 322 321 322 325 325 324 324 324 324 323 323 324 324 325 324 322 322 324 325 323 324 326 324 322 322 324 326 325 324 325 322 321 320 319 320 320 319 320 320 321 321 322 322
304 303 304 305 304 304 305 305 304 305 305 305 305 304 305 304 303 301 303 303 304 305 306 306 305 305 307 308 307 308 311 312 311 312 313 313 313 313 313 313 315 315 316 317 317 320 322 322 323 324 324 324 323 323 322 322 323 325 327 327 323 321 323 324 323 323 324 323 325 325 323 324 324 323 326 324 322 321 318 317 317 318 319 319 319 320 320 321
304 303 304 305 303 304 305 305 304 305 305 305 304 304 305 304 302 302 303 303 304 305 306 307 306 306 307 308 308 308 310 311 313 313 313 313 313 313 313 313 313 314 316 317 315 317 321 321 321 323 324 323 322 322 323 322 323 325 326 325 324 323 323 323 324 325 325 324 326 326 323 323 322 322 325 323 321 319 317 318 318 317 318 319 319 319 319 320
304 303 304 304 304 304 305 304 304 305 305 304 304 304 303 302 301 302 303 302 302 305 306 306 306 307 308 309 309 308 309 311 314 314 313 313 312 312 312 312 315 316 316 317 316 316 318 318 319 321 322 322 322 322 322 322 323 323 323 323 323 324 324 325 326 326 327 327 326 326 324 323 322 322 321 321 323 321 318 320 322 320 320 319 318 319 319 319
304 304 304 304 304 305 305 304 304 305 305 304 304 303 302 302 302 302 302 300 300 304 306 306 306 307 308 309 310 309 310 311 313 315 314 312 312 313 312 312 316 317 316 317 317 316 317 317 319 321 321 321 323 323 321 320 320 321 323 323 323 323 324 325 325 325 327 328 327 326 324 323 323 322 322 323 325 323 319 320 322 323 324 321 319 320 318 318
304 304 304 304 304 304 304 304 304 304 304 304 303 302 302 303 303 302 301 300 301 305 308 307 306 307 308 308 309 309 310 311 312 314 314 313 313 314 313 311 313 314 315 315 315 315 316 316 318 320 319 320 322 323 321 318 319 320 322 324 324 324 325 326 326 326 328 327 326 325 324 323 322 321 323 324 323 322 320 319 320 322 323 321 320 320 318 319
304 304 304 304 304 304 304 304 304 303 303 302 302 301 303 304 303 303 301 301 302 304 307 308 307 307 308 308 308 309 309 311 311 312 313 313 313 313 312 311 311 312 315 314 312 314 314 314 317 318 318 321 321 323 322 320 320 320 321 322 324 326 327 327 326 326 327 325 324 325 324 324 323 320 320 319 318 320 319 319 319 319 320 320 320 320 319 321
304 305 304 304 304 304 304 303 303 303 302 301 302 303 303 303 303 302 301 301 303 304 306 308 307 307 308 307 308 308 309 310 311 311 312 312 312 313 312 312 311 311 315 315 312 313 312 311 315 316 318 321 321 321 322 320 320 320 320 321 323 325 326 326 326 325 326 324 322 322 322 323 323 321 322 320 318 318 316 316 318 317 317 318 319 319 319 320
304 304 303 303 303 303 303 303 303 303 301 301 304 304 304 303 302 302 301 301 303 306 307 307 307 308 308 307 308 308 308 310 311 311 312 312 312 313 312 312 312 311 313 313 311 311 311 311 314 315 317 321 320 319 319 320 322 321 320 321 322 324 324 325 326 325 326 326 322 321 324 324 321 319 322 322 321 321 319 317 316 316 317 317 317 317 318 318
303 303 302 302 302 302 303 303 303 302 300 301 304 304 304 304 302 302 302 301 302 305 306 305 306 307 308 308 308 308 307 307 310 311 312 312 312 312 311 311 311 311 310 310 311 312 311 311 315 316 316 319 319 319 318 320 323 322 320 322 322 323 323 325 327 324 324 327 325 323 325 324 321 319 320 320 321 323 323 320 316 315 315 316 317 317 317 317
302 302 301 301 301 302 302 303 302 301 300 302 303 304 304 304 302 301 302 302 301 303 303 303 305 307 308 307 307 308 307 307 309 311 312 313 312 311 310 310 311 311 310 307 309 313 310 308 313 315 316 317 318 319 318 318 322 323 322 322 320 321 321 321 325 324 324 326 326 324 324 323 322 323 323 320 320 323 325 323 319 317 316 316 316 316 317 319
300 300 300 300 301 301 302 302 302 301 301 301 303 304 303 303 303 302 303 304 302 302 303 302 304 308 309 307 307 308 308 308 309 310 311 312 313 311 310 311 311 311 311 308 308 313 310 306 311 314 315 317 318 320 319 318 319 320 318 318 319 322 322 321 323 325 325 325 325 325 324 323 322 322 324 325 322 321 323 324 321 319 317 316 316 316 317 322
299 300 300 300 301 301 301 302 303 302 301 302 303 304 301 301 303 303 304 306 304 302 303 302 303 307 310 309 308 308 308 308 309 310 311 311 313 312 310 311 312 311 311 309 308 312 310 306 310 312 313 318 320 320 320 319 318 317 316 317 318 320 322 323 322 324 327 325 324 326 326 327 326 321 323 328 326 323 323 324 324 322 319 316 316 317 321 328
299 300 301 300 300 301 301 301 302 302 302 302 303 303 302 302 302 302 304 306 305 302 302 302 303 305 309 309 308 308 308 308 309 310 310 311 312 312 310 311 312 312 312 310 309 313 313 308 309 312 312 316 320 319 318 318 318 318 319 319 319 318 320 323 322 324 328 325 324 325 325 328 330 323 321 325 325 325 324 323 324 321 319 319 321 323 326 329
299 301 301 299 301 301 301 301 301 302 302 302 302 302 303 303 302 303 305 306 305 303 302 304 305 304 306 307 307 307 308 308 309 309 310 310 312 312 311 311 311 311 312 311 310 314 316 310 308 313 314 316 319 318 315 317 319 319 320 320 320 320 321 322 324 325 326 325 325 325 323 327 329 322 321 323 324 325 324 323 322 319 320 327 329 325 323 322
300 301 300 300 301 301 301 302 302 301 302 301 301 302 303 303 302 303 305 305 305 304 303 305 307 306 305 306 306 307 308 308 308 308 310 310 311 312 311 310 312 312 312 313 311 311 316 313 309 313 317 317 316 313 310 316 320 318 318 319 320 320 321 322 324 324 324 324 325 324 326 330 325 318 321 324 324 324 323 322 324 324 325 328 326 319 316 315
299 299 298 299 301 300 300 301 301 301 301 300 300 302 303 303 303 304 304 305 305 305 305 305 306 306 307 306 306 307 307 307 307 308 308 309 309 311 312 311 313 314 312 313 312 311 314 314 311 314 317 316 315 312 309 313 317 317 318 319 319 319 320 321 322 320 320 323 325 324 325 327 321 317 319 320 320 322 320 319 324 328 326 321 318 316 314 313
299 299 299 299 300 300 300 300 301 301 301 301 300 302 302 302 303 304 304 304 305 306 306 306 306 306 307 307 307 307 307 307 308 307 307 308 308 311 313 313 312 313 313 312 313 312 312 313 313 315 316 315 316 316 314 313 314 317 319 318 317 318 318 318 318 317 318 321 324 324 325 328 326 322 320 321 322 322 320 317 318 322 322 317 314 313 312 312
298 298 299 298 297 299 300 300 301 301 301 301 301 302 302 301 302 304 303 304 307 308 306 306 306 307 306 306 306 306 306 307 308 307 307 308 308 309 311 313 312 312 312 312 313 312 312 314 313 312 314 314 314 315 316 315 315 316 318 317 316 317 317 317 318 319 320 322 323 323 326 331 332 328 326 327 327 324 321 318 315 315 317 316 314 314 312 313
298 299 300 298 297 298 299 298 300 301 301 301 301 302 302 302 303 303 302 303 306 307 307 306 306 306 305 305 306 306 306 306 307 307 307 307 309 309 309 311 311 311 311 313 313 311 311 313 313 311 312 312 312 315 317 317 316 316 317 317 317 316 317 317 319 319 319 320 322 322 324 327 328 328 326 325 325 326 325 323 319 316 316 315 314 314 313 313
297 299 300 299 298 300 299 298 299 301 301 301 301 302 302 302 303 303 302 302 303 305 306 305 305 306 306 306 307 307 307 307 307 307 306 306 308 308 308 309 311 312 312 312 312 311 311 312 312 312 312 311 313 318 319 316 317 316 316 317 317 316 316 317 318 318 317 319 319 320 323 324 323 322 321 319 319 322 325 327 326 322 319 316 314 314 314 314
296 298 298 296 298 301 301 300 300 300 301 301 301 302 302 302 303 303 303 303 303 304 305 305 305 307 307 308 308 308 308 308 308 308 307 306 307 308 308 308 309 311 312 310 310 311 312 312 311 311 312 312 312 316 317 316 316 316 316 316 316 316 316 317 317 317 317 318 317 317 322 322 319 318 318 317 316 317 321 323 322 320 318 316 316 316 317 316
297 298 297 296 298 300 300 300 300 300 301 301 301 302 302 302 302 303 304 304 303 303 304 305 306 306 306 308 308 307 308 308 308 308 307 307 307 309 309 309 309 309 310 311 310 310 311 312 311 311 312 312 312 314 316 316 316 315 315 315 315 316 317 316 317 317 317 317 317 318 320 319 318 318 318 318 318 317 318 317 315 316 318 318 317 317 318 317
298 298 298 298 299 299 299 300 301 301 301 301 302 302 302 302 302 303 304 304 304 304 304 304 305 305 305 306 307 306 306 307 308 308 307 307 307 308 309 310 310 308 309 311 310 308 310 312 311 310 312 312 311 313 315 316 316 316 315 314 313 315 316 316 317 317 317 317 317 317 318 317 318 321 321 321 319 316 315 316 315 316 316 316 316 315 315 315
297 297 297 299 300 300 300 301 301 301 301 301 302 302 301 302 302 303 304 304 304 305 304 303 304 305 305 305 306 306 306 307 308 308 307 307 307 308 308 309 310 310 309 310 308 306 308 311 310 311 312 311 311 312 312 312 312 312 313 313 313 313 315 316 317 317 317 317 317 317 318 316 316 319 319 319 320 318 317 317 316 314 313 312 314 314 315 317
296 296 296 298 300 301 302 302 301 301 302 302 302 302 303 303 303 303 304 304 304 305 304 304 304 305 306 305 305 306 306 307 307 307 307 306 306 308 309 309 309 310 310 309 307 306 308 311 311 311 312 311 310 311 311 310 311 311 311 312 313 313 314 315 316 316 316 317 318 317 317 316 315 317 317 317 319 321 321 319 318 316 314 312 313 316 321 324
Wind_Speed
20 20 19 18 18 17 16 16 17 17 17 17 16 17 17 17 17 16 16 16 16 16 14 12 13 15 16 16 15 14 16 18 20 19 16 19 21 21 21 21 19 17 18 20 19 17 14 12 12 12 8 4 1 1 1 0 1 2 3 2 2 3 3 4 6 5 2 3 4 3 5 8 4 3 2 2 4 3 0 3 2 3 3 3 5 3 12 24
19 19 20 20 19 18 18 17 17 17 17 17 17 16 17 17 17 17 17 16 16 17 15 12 12 14 14 15 15 13 15 19 20 20 25 29 29 29 26 23 19 17 17 18 15 11 8 7 11 11 5 1 2 1 1 0 2 3 3 2 3 5 5 5 6 5 3 3 4 3 4 6 6 5 4 3 1 2 2 4 3 4 5 2 2 8 19 23
19 19 19 20 21 19 19 18 17 18 17 17 17 17 17 17 17 17 17 17 16 17 16 14 11 13 13 14 13 12 14 17 15 15 22 23 23 26 26 25 21 17 17 17 13 7 6 7 10 8 2 1 2 1 1 1 2 2 3 2 5 6 4 4 5 6 5 3 3 3 4 4 4 5 3 4 3 2 5 6 1 4 7 3 1 11 18 19
19 18 19 20 21 20 19 19 19 18 18 17 17 17 17 17 17 17 17 16 16 16 16 15 12 12 12 12 11 11 11 11 7 4 11 10 8 12 15 19 20 18 19 18 14 8 7 9 9 5 1 2 3 1 1 3 2 2 4 4 5 5 3 5 6 6 5 4 3 2 3 3 3 3 3 6 5 2 6 7 8 9 9 7 4 9 15 16
18 18 18 19 19 20 20 19 19 19 19 18 17 18 17 17 17 17 17 17 17 16 16 16 14 12 11 11 9 9 7 5 3 4 10 10 9 5 3 8 14 16 17 15 10 5 4 6 4 3 1 2 2 1 3 5 3 2 4 5 4 5 3 5 5 5 3 4 3 3 3 3 3 2 4 9 7 5 7 7 10 10 8 10 10 10 12 12
19 18 18 18 18 19 19 19 19 19 19 18 18 18 16 17 17 17 17 17 17 17 16 15 15 13 11 11 9 6 2 1 1 6 8 13 16 12 8 5 6 10 12 12 8 3 3 1 2 1 0 1 3 3 5 4 3 3 4 4 5 5 4 3 2 4 4 5 4 3 3 3 4 1 3 8 8 7 6 6 8 7 7 11 12 12 11 10
18 18 18 18 18 18 18 19 19 19 19 19 18 18 17 17 16 17 17 17 16 16 16 15 16 15 12 11 7 4 3 6 8 5 3 7 9 8 9 11 11 6 7 11 9 5 2 2 2 2 2 1 4 5 5 3 1 5 5 3 6 6 5 5 2 3 4 3 2 3 1 3 6 3 2 5 9 7 3 3 4 5 10 11 10 11 11 12
19 18 18 18 18 18 18 18 19 19 19 19 19 19 18 17 16 16 16 17 16 16 16 15 16 15 14 10 4 4 5 13 21 14 9 9 9 15 18 15 13 8 7 13 11 7 3 4 4 2 2 3 3 4 3 1 2 5 7 4 4 5 6 6 4 3 2 3 1 3 2 5 6 4 4 6 10 7 1 2 3 6 9 9 9 11 10 11
19 19 18 18 18 18 18 18 18 19 19 19 20 19 19 17 16 16 16 17 16 16 16 15 16 14 15 10 3 4 7 17 29 23 22 23 23 26 24 16 12 9 5 12 13 11 6 4 5 3 2 4 3 3 2 3 4 6 7 5 4 5 6 4 5 6 4 3 2 4 5 6 3 2 2 8 8 3 3 5 5 7 8 8 9 10 10 10
19 19 18 18 18 18 18 18 18 19 18 19 19 19 19 18 18 17 16 17 16 17 16 15 15 14 17 10 5 7 5 9 20 18 20 25 26 27 20 13 10 7 5 9 12 11 7 5 5 3 1 2 2 2 2 3 3 3 5 5 5 6 4 2 4 5 1 2 4 6 8 4 2 0 3 7 4 4 5 5 4 6 7 8 8 8 9 10
19 19 19 19 18 18 17 17 18 18 18 18 19 19 19 18 19 17 16 16 17 17 16 16 14 15 19 10 7 9 3 5 10 5 10 15 16 16 12 9 6 6 7 7 11 13 10 7 4 2 1 1 1 3 3 3 2 2 3 3 6 7 6 1 3 4 2 2 6 8 6 3 3 1 5 5 3 6 6 5 4 5 6 7 7 7 7 10
19 19 19 19 19 18 17 17 17 17 18 18 18 19 19 19 19 18 17 16 17 17 16 16 14 16 17 8 11 14 8 11 8 3 7 8 10 9 8 7 5 7 10 7 10 15 16 12 5 2 2 1 1 3 3 2 2 2 2 2 5 6 7 6 4 3 5 3 5 7 3 4 3 5 8 5 3 5 5 5 5 6 6 6 6 6 6 9
20 19 20 19 19 19 18 18 17 18 18 18 18 18 18 19 18 19 18 16 17 16 16 16 13 15 15 6 10 17 22 23 11 7 10 7 11 12 9 9 7 9 12 12 12 14 18 17 9 3 1 1 2 3 2 3 1 1 2 1 2 3 7 9 5 4 6 4 5 7 4 6 7 9 9 4 4 5 5 6 6 6 6 5 6 6 7 9
20 20 20 20 20 20 19 18 18 17 18 18 17 17 18 18 18 19 17 16 17 16 15 15 13 13 11 7 6 11 23 27 20 20 20 15 16 16 12 9 7 8 11 15 14 11 17 19 11 3 1 1 3 4 5 5 1 2 2 2 2 3 6 6 6 8 7 4 5 7 6 7 7 10 10 5 5 7 6 7 7 6 6 5 6 6 7 9
20 21 21 21 21 21 20 19 18 17 17 17 17 17 17 17 17 17 16 15 15 14 14 14 13 10 6 7 8 9 16 16 19 27 27 25 23 16 9 6 6 6 8 13 11 8 14 17 9 3 2 1 1 3 4 4 2 1 4 3 3 5 5 5 4 11 11 4 4 8 6 5 6 9 9 6 6 7 8 8 7 7 7 7 6 6 7 8
21 21 21 22 22 22 21 20 19 18 17 16 16 16 16 16 17 17 15 14 13 13 10 9 10 9 6 6 5 9 12 11 14 21 22 25 25 18 12 10 10 7 5 8 7 7 12 13 5 2 3 1 3 2 2 2 3 2 5 5 5 7 5 4 3 8 12 5 4 8 5 2 5 9 9 5 7 8 8 9 8 8 8 7 6 6 7 7
23 22 22 22 23 23 22 20 20 19 18 17 16 15 15 14 14 16 15 13 13 12 8 7 7 5 7 6 4 5 6 10 15 17 16 17 22 21 13 6 6 4 1 2 4 5 8 8 3 2 4 2 3 4 1 4 6 4 5 5 4 5 6 4 2 4 6 6 6 8 6 5 5 6 7 6 7 9 9 10 10 9 8 7 6 6 6 7
23 23 23 23 23 22 22 21 20 19 19 18 16 15 15 14 13 14 14 12 10 8 7 9 7 4 6 7 6 3 2 9 14 13 12 10 13 17 11 3 3 2 1 1 2 5 4 4 4 4 4 4 4 6 9 12 11 8 7 6 5 4 6 5 2 2 5 5 7 7 8 10 8 7 7 6 6 8 10 11 10 9 8 6 6 6 7 7
24 25 25 24 23 23 22 21 20 20 19 18 16 13 12 11 11 11 11 9 5 3 4 5 8 5 2 2 4 2 3 7 10 10 10 8 7 10 11 5 1 2 2 2 4 5 3 3 4 5 6 9 11 13 15 10 7 10 9 8 7 5 5 5 5 5 7 6 8 10 10 11 10 11 11 8 5 7 9 9 8 7 6 6 6 6 8 8
25 25 25 25 24 23 23 21 20 20 18 17 15 9 6 4 4 5 6 7 7 8 5 2 7 8 3 1 3 2 3 5 7 8 12 13 11 11 7 4 2 3 5 5 4 4 4 5 5 8 11 15 16 15 11 2 1 6 6 6 6 5 5 3 4 6 5 6 9 12 12 11 12 13 14 10 6 7 8 8 8 8 7 8 8 8 9 9
25 26 26 25 25 24 23 22 20 18 18 18 13 4 1 3 3 1 2 4 9 13 12 10 10 11 10 5 4 3 1 4 4 5 12 15 15 12 4 4 5 6 6 6 4 3 5 7 9 15 16 14 12 12 9 5 3 2 3 5 4 5 5 4 6 5 2 5 7 8 10 13 12 11 12 10 8 9 10 10 10 11 10 8 8 9 9 8
26 27 26 26 25 25 24 23 21 20 19 16 11 6 2 4 5 2 1 2 6 12 14 14 13 12 15 12 7 4 4 1 5 4 9 13 11 8 4 6 7 7 6 5 4 4 5 8 14 17 12 9 9 10 11 11 8 1 2 4 4 4 2 3 5 3 1 4 5 5 8 12 10 9 11 10 10 10 10 11 11 11 11 9 8 9 9 8
27 28 26 25 25 25 25 24 22 21 18 14 12 10 5 6 8 3 2 1 5 7 8 10 12 12 14 13 10 6 3 2 5 4 11 13 7 7 6 8 10 8 6 7 8 7 5 7 14 12 7 10 10 9 10 8 6 5 4 4 4 3 4 4 5 3 2 3 2 2 5 7 6 6 10 11 10 8 8 10 9 8 9 10 10 10 10 10
30 29 26 25 23 23 24 24 23 20 18 17 17 15 10 9 10 4 1 1 4 5 7 11 10 9 14 12 10 10 4 4 4 4 13 14 5 4 6 8 10 8 7 12 13 11 9 5 4 8 10 13 11 8 9 7 7 9 8 8 5 3 5 5 3 2 2 2 1 1 6 7 7 8 10 9 6 6 8 9 9 10 9 9 10 10 10 10
30 29 27 24 21 21 22 19 19 19 19 19 19 19 15 11 11 7 1 1 4 2 5 9 6 8 14 11 11 11 3 4 6 5 13 16 9 5 5 5 6 9 11 14 12 10 13 7 4 10 11 11 11 9 11 10 7 8 10 12 9 4 5 3 1 2 2 4 2 2 5 8 6 9 11 7 6 8 7 9 13 13 10 10 10 11 11 10
31 30 26 22 21 20 17 10 12 19 18 16 16 17 18 14 11 8 2 1 5 1 3 6 5 9 12 10 11 8 3 7 9 7 12 17 12 5 5 4 2 9 12 9 6 4 10 7 5 8 9 11 11 10 12 11 8 8 8 10 7 5 6 5 4 3 3 5 3 2 6 8 3 5 9 8 11 14 10 10 14 12 10 10 9 10 11 10
30 30 26 22 21 17 10 3 8 16 13 10 15 17 18 16 11 7 3 3 5 3 5 5 5 9 10 12 15 10 5 6 4 6 12 17 12 2 4 7 4 6 6 4 5 3 6 11 8 7 7 10 11 10 12 13 10 7 4 10 9 8 7 5 5 4 3 2 3 2 3 7 7 6 7 8 10 14 12 12 14 11 10 11 10 11 11 12
29 29 25 22 20 18 14 9 11 16 12 9 14 18 19 20 14 7 3 4 3 3 3 3 4 7 7 11 17 11 4 3 4 4 12 20 15 2 3 10 9 6 4 6 9 3 3 11 11 9 7 5 9 11 11 13 10 5 8 11 11 10 6 5 5 5 2 0 2 2 1 4 10 5 4 6 8 14 14 13 14 12 12 13 13 13 13 13
28 28 25 21 20 18 18 18 16 16 17 14 14 20 25 22 11 5 1 4 1 1 1 0 3 4 5 8 12 11 4 3 3 1 6 14 13 3 3 8 8 5 1 4 9 5 1 6 8 9 8 6 8 8 9 14 10 5 8 7 6 8 7 5 5 3 1 2 6 6 4 5 11 6 4 4 7 14 14 9 11 12 12 13 14 14 14 12
28 27 24 21 19 14 14 20 20 17 18 19 20 27 27 16 5 2 5 4 1 0 1 2 1 3 7 9 8 10 7 4 3 4 4 8 10 4 0 1 5 5 2 2 7 8 1 1 3 4 6 7 6 3 4 11 10 6 7 4 5 4 4 3 2 3 2 6 9 10 9 6 9 7 6 6 7 10 9 7 8 8 10 13 12 12 13 11
28 26 23 20 18 15 12 13 18 19 20 26 31 30 20 6 2 4 5 1 3 1 1 1 1 4 11 12 7 8 8 4 4 6 6 5 7 6 2 2 4 4 4 3 7 9 5 3 2 1 2 3 5 4 1 1 3 4 6 5 3 1 1 2 1 3 6 8 9 12 11 9 10 10 5 5 7 6 8 9 8 9 11 12 12 12 12 11
28 25 22 20 20 19 14 11 18 22 25 35 32 19 8 3 4 5 3 2 2 3 2 3 4 6 11 12 7 9 10 6 4 6 8 8 7 9 8 7 7 5 6 8 8 9 8 6 3 2 2 2 5 5 1 3 1 3 5 7 5 3 3 4 4 5 7 8 5 8 10 8 12 12 7 8 8 5 7 8 8 10 11 11 12 12 11 10
27 23 20 20 21 21 18 16 19 23 30 36 22 6 4 5 5 7 6 2 2 3 1 1 6 9 10 9 6 9 10 7 7 6 9 10 8 11 12 8 9 6 4 8 9 5 5 5 4 3 4 3 7 7 3 2 4 5 6 8 8 6 4 6 6 4 5 6 2 5 8 5 8 10 11 16 15 10 10 9 8 9 10 11 10 9 8 8
23 21 19 21 22 21 19 16 18 25 31 25 11 4 6 5 5 7 7 6 3 2 1 1 5 9 11 8 6 9 7 6 9 8 7 7 4 7 10 7 8 5 3 5 7 6 7 7 6 9 6 6 9 8 4 4 6 7 7 6 7 6 4 4 5 4 2 1 0 3 5 5 6 4 5 11 12 11 14 12 11 10 8 9 9 8 8 7
17 17 17 19 20 19 18 17 21 30 27 12 4 8 10 7 5 5 6 6 3 1 1 0 4 6 8 7 6 9 6 3 7 9 6 6 4 6 8 8 10 8 4 5 5 5 9 8 5 10 8 9 10 7 2 4 4 4 3 5 6 6 5 2 1 4 3 1 2 4 3 4 6 6 5 5 4 5 10 11 13 14 11 9 9 9 8 6
12 13 14 15 16 15 16 16 23 32 22 5 5 9 7 6 6 5 5 6 5 4 2 1 2 3 4 4 5 8 6 2 6 9 6 6 7 9 10 8 11 12 8 7 4 3 8 8 2 5 6 8 10 9 7 5 4 2 3 7 3 1 3 3 2 1 3 3 4 4 5 4 5 10 9 8 6 5 7 7 11 15 15 13 11 9 8 6
12 12 9 9 11 14 15 16 24 29 15 3 8 8 3 3 4 5 5 5 5 5 4 2 2 3 3 3 4 8 8 4 7 8 6 6 6 10 12 8 9 14 12 9 4 2 6 6 1 5 7 6 3 6 6 4 3 4 5 5 1 2 1 2 3 3 2 4 4 6 9 7 5 8 5 5 10 9 7 8 10 11 11 12 12 10 8 5
13 9 5 7 13 14 13 17 24 21 6 1 9 10 4 2 3 3 3 4 5 5 5 5 4 4 4 4 4 7 10 7 7 8 7 5 4 9 14 8 8 16 16 10 4 2 4 4 4 2 5 3 5 7 4 2 1 3 3 1 2 2 3 2 4 5 3 5 5 7 10 6 7 8 3 4 11 10 8 8 8 10 10 10 11 9 6 4
10 5 1 5 14 14 14 20 20 10 2 3 9 10 4 2 2 3 3 3 5 5 6 7 5 3 3 4 3 6 11 10 7 7 7 5 3 8 15 10 7 15 16 10 5 2 3 4 5 3 0 3 5 4 7 6 1 1 1 1 1 2 3 4 5 3 3 6 6 6 6 4 6 8 5 6 8 8 9 8 8 11 11 9 8 6 5 5
6 3 2 3 12 14 17 20 12 3 4 5 6 5 1 1 3 6 7 5 3 3 5 7 5 4 4 3 2 3 9 11 9 6 6 6 4 5 12 11 8 11 12 10 6 0 3 4 5 2 1 3 5 6 11 12 6 3 3 3 3 2 1 1 3 3 3 5 6 7 6 4 4 4 7 9 8 9 11 10 9 10 8 6 6 5 4 2
3 2 2 1 12 17 17 13 5 2 5 4 4 3 2 1 3 5 8 8 4 1 2 3 4 6 6 5 3 2 3 6 8 7 5 6 6 4 8 12 10 10 10 9 8 2 2 4 4 2 2 4 5 4 6 8 7 7 7 6 6 6 3 2 3 3 2 3 5 6 6 5 4 3 4 6 5 6 8 7 7 6 5 5 5 4 3 1
2 2 3 1 15 20 12 5 3 2 4 4 2 2 2 2 2 3 4 5 4 2 1 1 2 5 6 6 5 4 3 2 6 7 5 7 9 5 5 8 10 11 10 9 8 4 2 2 3 2 3 4 3 1 1 1 5 6 8 7 6 5 6 6 5 2 1 4 4 2 4 5 3 3 3 4 5 5 5 4 5 6 4 4 4 3 1 2
2 1 4 0 16 18 7 3 4 3 4 2 1 1 2 1 2 3 4 4 3 2 1 1 2 3 3 3 3 5 6 4 5 8 6 6 8 6 3 5 9 11 9 8 7 5 1 2 3 2 2 1 2 3 3 3 3 3 6 6 6 7 8 7 4 1 1 4 5 4 5 3 3 3 3 4 4 4 4 4 5 6 3 2 1 1 2 3
2 0 3 0 11 12 4 2 4 4 5 1 1 3 2 1 3 4 6 6 3 2 3 2 1 1 1 1 1 3 6 6 6 9 7 4 5 4 6 9 10 10 9 7 7 7 5 4 5 3 1 1 2 3 2 1 2 4 5 7 9 10 8 3 0 0 1 3 5 5 5 4 3 4 3 3 4 5 5 3 4 4 2 1 1 1 1 2
1 1 2 2 2 4 1 1 2 3 5 3 4 6 3 3 3 4 6 6 3 3 4 2 1 2 2 2 2 1 4 4 4 6 6 4 3 2 6 11 11 9 6 5 8 8 5 4 6 7 7 6 8 7 4 3 4 2 2 5 8 10 11 6 4 6 4 3 4 4 4 5 5 6 5 5 6 6 6 5 3 1 1 2 3 3 3 3
1 1 2 3 3 1 1 1 1 2 2 3 5 5 6 5 2 1 3 5 3 3 3 0 1 3 2 4 4 3 6 6 3 3 5 5 3 2 3 10 12 10 7 6 8 6 3 3 6 9 11 10 8 5 3 6 5 3 5 8 9 9 11 9 7 8 6 4 4 4 3 4 7 7 7 6 4 3 5 5 4 2 1 1 3 4 3 3
1 1 1 1 2 1 1 2 1 1 1 3 3 4 7 8 3 1 1 2 4 3 2 1 2 4 4 5 4 4 6 6 6 6 6 6 4 3 2 6 9 11 9 7 5 4 2 4 9 11 14 15 8 4 5 8 8 9 10 11 10 9 10 11 10 10 8 6 9 8 5 7 10 9 10 11 7 6 6 5 4 3 3 3 3 3 3 3
1 1 2 1 1 1 1 2 4 5 4 3 2 2 6 8 6 4 1 1 2 3 2 1 3 6 7 6 4 3 4 5 7 8 6 5 4 2 1 2 5 8 10 7 5 4 3 6 10 10 14 16 8 4 5 7 8 10 11 12 11 9 11 13 14 14 11 8 10 9 7 11 15 11 11 13 12 9 8 6 4 3 4 4 4 4 4 5
1 0 1 1 1 2 3 3 5 7 7 5 3 3 6 9 8 5 2 2 2 3 4 4 6 8 8 7 5 3 4 5 6 7 6 5 5 4 3 2 3 5 8 8 6 5 3 6 7 9 13 14 8 5 5 6 6 7 10 13 12 12 14 15 14 15 13 11 11 9 8 12 13 8 8 9 5 3 3 2 2 3 5 6 6 6 6 7
1 0 1 1 2 3 3 3 4 6 6 6 5 3 5 8 9 6 2 4 4 3 4 8 8 7 8 8 8 7 8 8 6 4 5 5 5 5 5 4 3 3 6 7 5 3 4 5 5 7 8 10 8 8 7 7 7 7 7 9 9 10 12 13 13 13 11 11 14 13 11 11 8 5 6 5 1 4 2 2 3 5 7 7 7 7 8 8
2 3 2 1 2 3 3 2 2 3 3 4 4 3 2 5 7 5 3 5 7 5 7 10 8 4 5 8 11 12 12 11 10 7 5 6 6 4 4 4 5 6 6 6 3 2 4 3 2 5 5 8 7 10 10 7 4 6 7 6 7 8 9 11 12 12 12 12 13 14 11 10 9 7 7 7 4 4 5 5 6 8 8 8 9 10 10 10
2 3 2 2 2 2 2 1 1 2 2 3 5 4 3 5 5 5 3 4 5 6 7 9 8 4 4 9 14 14 12 10 9 6 4 5 6 4 4 5 5 7 7 5 2 2 5 3 2 5 6 6 3 8 8 3 2 8 11 12 13 11 11 11 10 10 13 12 10 10 10 12 12 8 8 10 8 6 6 7 8 9 7 7 8 9 9 9
Wind_Direction
301 302 302 303 302 300 298 296 294 293 292 290 289 288 287 290 293 295 295 291 282 274 270 272 284 293 299 307 307 305 311 310 304 300 281 267 269 268 265 267 269 275 287 295 309 327 329 325 326 334 340 331 344 306 286 62 110 85 94 129 192 189 200 188 189 198 162 273 263 229 181 159 189 216 174 105 64 81 31 312 301 304 281 242 293 328 153 157
296 297 298 299 300 300 298 296 294 291 290 288 288 286 285 286 288 291 293 295 290 280 272 265 274 287 294 304 308 311 313 311 307 293 278 273 272 268 265 265 263 266 278 288 303 331 343 330 335 349 8 325 307 311 309 271 148 125 122 159 218 199 207 201 184 192 187 242 245 222 177 173 190 173 156 184 248 78 162 266 340 318 275 314 1 138 152 157
292 293 295 295 295 297 297 296 294 290 289 289 288 286 284 285 285 287 288 291 293 287 276 262 265 279 289 300 307 313 315 317 307 288 292 290 277 268 262 259 257 258 267 275 283 299 317 312 321 340 19 279 286 284 307 209 187 168 137 191 239 209 227 240 202 210 217 209 217 227 178 181 206 164 159 180 167 139 195 223 207 256 246 242 116 146 153 159
293 293 293 293 293 294 295 294 292 290 287 286 287 285 283 284 285 283 283 288 290 289 281 266 259 267 283 296 302 309 317 320 293 298 343 332 292 275 260 254 251 254 258 260 266 270 286 298 308 337 42 267 305 6 221 217 199 167 155 200 228 184 222 245 208 222 222 183 187 188 142 177 215 162 159 146 135 251 242 225 201 213 213 188 186 164 162 166
295 292 291 293 294 293 293 293 291 291 288 285 284 282 280 281 283 282 281 286 287 288 286 275 262 258 277 287 291 308 325 325 269 95 51 52 61 37 313 270 255 257 257 248 252 250 258 286 323 9 37 254 298 59 229 229 155 157 205 208 200 151 194 244 202 209 189 140 128 118 144 182 170 136 160 153 160 231 232 222 212 209 189 170 175 169 169 176
294 292 292 292 293 292 291 290 289 289 287 285 284 284 284 281 281 281 280 283 285 285 285 279 268 256 261 272 279 291 268 270 246 112 76 62 64 62 58 5 300 276 259 235 225 187 192 255 24 354 67 252 220 200 240 249 146 197 246 212 205 181 194 244 179 184 157 118 126 164 196 147 128 187 181 171 196 219 216 222 224 212 174 161 161 162 173 185
294 293 292 291 291 290 289 288 286 285 283 284 284 284 284 283 281 279 280 280 282 284 283 280 270 256 250 259 266 258 223 250 250 179 95 38 37 15 3 356 356 332 237 210 196 172 159 162 189 183 144 258 223 217 245 262 183 219 238 213 214 208 210 229 182 156 139 141 203 173 165 153 171 199 144 198 232 234 248 260 227 176 149 150 157 170 184 189
294 292 290 288 287 287 287 286 285 284 282 282 281 281 280 280 278 277 279 278 278 280 281 280 270 257 246 246 235 241 231 241 246 238 256 286 303 305 314 332 353 350 219 203 194 176 161 173 204 186 173 249 205 208 233 208 248 225 222 219 207 208 221 229 223 240 215 224 243 123 187 217 193 166 140 223 248 249 292 40 116 133 137 153 173 184 190 193
293 291 288 286 284 285 285 284 284 282 281 281 279 278 277 278 278 276 277 276 277 277 280 281 273 259 244 233 171 240 243 244 254 261 268 274 279 286 299 316 330 330 233 213 204 185 179 179 205 198 216 257 194 209 242 200 231 225 215 215 201 215 227 206 218 247 248 241 155 143 244 260 224 147 189 239 245 226 93 80 106 128 146 172 187 192 193 197
293 291 288 285 283 282 282 282 282 281 280 279 277 277 275 277 277 275 275 276 277 275 277 278 275 259 243 224 179 234 239 254 264 269 269 270 274 280 294 310 313 306 244 218 206 193 185 182 200 187 216 264 202 230 262 204 229 231 213 226 230 242 259 155 205 243 223 228 178 181 237 267 335 87 235 253 220 150 100 91 132 147 172 190 196 203 201 207
293 291 288 286 283 282 282 282 281 280 279 277 277 276 274 275 275 274 273 274 275 273 273 275 276 259 241 217 206 228 184 251 263 265 264 267 273 284 300 305 304 270 243 216 208 206 200 198 194 148 207 258 251 287 281 231 295 311 207 256 271 274 295 189 213 242 165 231 193 178 232 279 19 194 228 248 175 159 136 132 174 179 200 204 205 212 207 221
292 290 290 287 285 284 283 283 281 280 278 277 276 274 273 273 273 274 271 272 275 272 270 271 276 265 249 226 223 223 212 241 245 235 257 271 280 291 310 305 296 254 239 219 214 211 205 203 182 158 226 290 309 279 277 263 314 330 145 232 278 287 275 224 207 218 170 214 181 150 272 268 221 220 232 236 146 157 153 163 201 206 217 215 215 220 216 229
291 290 290 288 287 285 284 283 282 281 279 278 276 274 272 270 272 273 271 271 273 273 271 270 275 268 257 248 237 230 234 240 230 237 249 266 283 281 290 297 288 256 239 234 235 220 207 202 191 195 225 89 257 254 324 350 283 213 149 185 272 299 262 225 193 166 165 198 161 147 246 234 217 230 234 221 136 141 161 198 215 215 227 224 220 224 227 231
291 289 288 288 287 285 284 282 281 281 279 278 276 273 272 269 269 270 270 270 271 274 272 270 273 267 253 254 268 244 242 243 237 244 247 250 270 280 281 288 284 261 243 239 245 238 210 199 194 212 256 180 263 306 345 352 3 168 190 218 197 208 260 241 186 161 174 219 152 159 237 232 225 240 236 216 157 158 190 220 218 216 228 224 222 223 232 233
289 287 286 285 285 284 283 282 281 279 278 278 277 274 273 271 268 267 269 269 269 275 275 276 274 264 263 266 267 249 238 235 234 243 247 248 257 270 274 287 306 289 251 237 240 236 202 190 185 191 242 220 234 340 349 332 340 150 199 222 208 211 274 294 203 171 184 222 149 169 227 253 245 247 243 217 169 175 206 224 221 221 227 224 228 224 232 241
288 285 284 282 282 282 281 280 280 278 278 278 276 275 273 273 272 269 270 269 268 274 274 281 269 243 260 283 264 243 227 212 228 242 245 245 245 247 254 281 311 311 254 228 225 216 188 179 172 171 199 176 159 141 24 326 302 258 211 211 209 208 238 286 268 200 189 183 184 204 221 251 241 240 244 217 176 185 212 230 228 223 229 226 226 227 231 247
287 284 282 281 281 279 277 276 276 276 277 276 276 278 277 276 276 270 270 270 267 270 261 265 274 246 253 270 262 252 226 211 226 238 239 242 241 238 243 278 314 317 247 198 203 196 181 177 159 164 184 177 161 141 132 236 231 234 219 220 226 204 208 216 288 253 196 188 210 223 227 225 246 250 247 230 189 190 210 229 232 223 227 224 223 234 234 240
284 281 279 279 279 277 275 273 272 273 273 275 276 278 278 279 281 275 271 267 265 271 262 254 261 255 244 258 256 227 199 216 222 231 230 233 240 230 217 211 334 340 97 94 204 191 185 186 171 173 175 176 176 168 202 219 210 201 199 216 232 221 217 208 231 224 173 214 224 211 226 232 255 277 261 246 191 191 214 225 232 231 228 227 226 234 238 240
284 281 278 277 276 274 273 271 270 269 270 273 273 277 284 285 287 278 260 249 240 233 252 218 203 223 233 267 276 213 180 206 210 221 213 207 217 201 195 196 344 312 200 182 207 197 186 173 175 188 186 193 198 197 208 215 195 195 201 212 213 216 238 223 246 239 170 196 227 214 226 226 232 247 248 248 191 191 225 233 243 249 240 238 235 233 239 240
289 284 280 275 272 270 268 267 267 266 266 265 265 275 290 282 283 277 239 224 219 224 266 250 199 238 271 40 332 287 183 179 195 207 195 195 177 157 172 166 126 256 229 199 197 179 185 200 201 205 205 203 204 208 217 253 93 192 204 225 211 203 251 239 241 267 198 191 227 222 230 229 221 231 237 238 214 207 230 236 242 247 243 239 235 237 237 237
297 290 284 277 271 267 263 261 261 260 261 256 247 240 249 187 186 276 224 223 226 221 243 255 229 246 261 276 348 355 140 177 237 230 191 187 161 148 177 162 171 231 222 214 217 165 191 214 214 213 214 207 201 205 217 241 238 158 161 218 222 200 242 242 213 256 211 188 236 227 233 241 227 227 238 235 225 225 223 222 228 233 238 240 237 243 242 242
304 297 290 281 273 265 260 257 255 254 255 249 228 213 225 194 205 294 24 292 251 214 224 242 239 252 257 261 279 312 14 191 263 274 183 175 160 169 188 162 189 222 209 215 231 207 210 225 225 220 212 197 196 198 206 225 232 244 100 200 224 202 229 284 238 247 148 185 243 233 232 248 240 231 241 237 229 229 223 221 224 222 228 238 239 246 250 250
309 304 296 286 276 267 259 252 251 249 241 229 214 211 224 214 227 294 35 322 283 222 212 227 230 242 247 249 240 244 334 225 239 249 181 171 171 185 164 167 199 211 202 206 215 217 212 229 231 218 189 193 200 194 199 221 234 234 222 209 232 188 180 255 256 235 210 198 216 239 257 263 257 247 245 240 234 235 240 238 238 229 226 234 237 241 246 245
312 308 300 289 280 270 261 254 252 247 235 229 224 221 228 225 230 259 89 253 278 236 213 211 213 230 237 235 207 197 238 236 236 230 182 173 166 172 169 181 195 202 210 212 217 226 233 247 215 181 183 197 196 183 191 206 227 230 223 223 236 182 188 237 253 209 254 272 180 247 293 273 235 234 244 245 239 239 245 247 251 247 235 237 246 247 245 242
311 309 301 290 282 275 269 262 252 240 232 231 226 220 222 226 230 231 161 286 266 258 212 201 201 229 226 211 175 166 181 238 247 225 182 180 172 151 182 186 183 204 212 213 216 230 240 243 140 181 195 186 187 192 194 197 219 233 224 220 218 174 185 217 166 151 212 263 248 157 263 270 232 220 233 232 230 237 229 229 239 241 236 233 241 246 245 243
307 307 301 289 284 279 272 266 238 226 223 224 219 211 212 216 216 202 143 286 257 255 166 171 172 204 203 176 151 143 178 233 237 216 190 192 189 161 180 174 170 212 206 210 222 230 241 231 166 200 200 179 192 203 197 190 209 236 217 200 187 160 188 189 171 171 189 240 278 138 221 266 279 222 229 219 229 237 223 223 235 234 236 233 229 238 241 244
301 302 297 285 284 278 259 234 206 207 208 213 210 205 205 201 184 153 115 275 251 153 149 178 175 177 176 161 149 145 203 219 198 205 196 193 198 180 173 181 195 214 183 175 219 209 215 217 203 201 197 189 197 204 194 184 204 240 150 146 170 186 194 174 168 200 218 241 330 23 214 266 273 246 226 207 228 247 236 232 239 232 234 238 233 233 231 236
294 296 292 281 279 271 249 221 182 191 204 195 191 195 191 183 169 128 107 255 252 110 136 209 177 148 150 159 158 165 203 118 114 207 193 186 195 162 162 199 198 193 162 171 210 228 193 216 212 197 203 205 204 209 189 177 206 227 136 150 184 193 174 139 167 206 229 99 265 279 83 262 264 254 208 198 222 249 243 232 238 236 233 238 239 237 232 234
289 289 286 276 275 272 250 225 196 195 205 184 171 181 174 167 154 102 204 242 313 34 14 89 155 142 132 151 171 189 189 119 132 177 161 179 200 192 176 208 182 158 170 190 214 236 197 220 215 191 204 220 215 218 182 180 206 194 150 151 159 172 171 168 180 167 97 230 224 216 165 230 262 248 187 198 219 240 245 233 233 234 232 235 238 240 239 236
284 283 280 271 268 258 229 219 214 207 198 179 166 163 154 145 129 115 227 231 56 305 32 53 207 159 142 150 179 196 187 167 143 117 143 184 204 208 180 161 117 123 196 257 240 238 261 301 239 196 211 213 205 221 195 195 196 147 134 114 101 150 172 163 160 129 192 246 224 209 188 199 260 248 192 204 216 227 240 236 231 232 233 239 239 240 242 238
282 277 270 262 255 233 203 207 213 205 189 172 158 146 135 125 157 189 219 193 62 228 148 119 201 140 156 166 173 184 187 189 148 145 172 189 195 198 180 105 102 123 190 239 254 241 249 269 254 252 230 164 166 194 290 238 189 145 135 135 126 121 109 111 127 174 212 241 223 209 192 186 240 243 193 222 242 233 237 235 230 228 228 233 234 234 235 235
281 271 262 255 245 224 209 208 206 197 175 159 149 135 128 179 191 196 214 67 59 231 190 166 167 149 175 184 179 178 180 186 177 171 181 182 190 194 191 184 166 165 196 211 227 233 240 236 224 291 280 147 162 186 73 30 259 202 137 147 175 187 181 189 197 193 214 240 225 186 178 193 243 250 243 255 262 255 245 237 229 230 231 233 234 233 232 232
278 262 252 245 230 217 217 218 208 192 166 153 145 128 162 196 205 193 191 184 220 228 336 155 167 162 176 189 197 190 185 184 175 186 197 188 191 199 201 195 178 174 181 197 214 227 247 242 203 236 265 196 181 185 184 176 199 202 166 166 188 189 190 201 201 205 217 237 258 146 167 205 258 257 244 242 244 245 246 243 236 236 240 245 246 246 246 244
272 251 242 234 221 213 212 210 203 187 169 155 145 156 179 207 208 179 193 223 243 242 293 286 160 161 177 191 189 179 195 218 185 180 195 183 184 200 201 205 194 181 115 164 205 204 220 240 195 194 206 177 193 208 191 156 174 201 195 184 195 193 201 205 195 203 202 228 322 157 169 198 221 235 235 236 242 245 246 246 242 240 241 251 262 262 257 256
266 240 230 219 212 209 199 196 193 179 170 163 169 180 188 201 183 174 207 212 226 260 233 122 130 160 194 198 185 175 180 225 190 185 194 185 191 190 189 204 199 189 152 167 202 191 212 248 221 203 196 162 186 213 144 121 168 203 209 207 213 208 215 240 176 178 154 104 187 193 217 220 233 287 299 263 286 273 253 249 244 247 245 245 257 260 255 254
242 215 211 201 200 205 195 193 184 171 163 167 210 200 198 197 179 179 192 182 192 197 137 60 115 161 218 199 191 192 175 160 190 199 210 191 199 196 190 203 196 192 187 180 191 167 199 243 237 179 201 185 187 188 169 174 187 171 194 209 220 234 202 210 275 173 136 203 204 182 241 268 281 287 269 240 256 277 268 256 242 245 246 244 249 253 255 255
185 176 178 180 192 200 197 193 177 168 160 173 217 220 210 216 203 181 173 155 171 172 151 227 202 164 210 207 201 196 183 187 195 203 207 182 201 200 192 205 198 199 207 195 209 188 185 233 245 151 206 227 163 140 165 204 190 169 199 203 100 35 100 130 240 233 155 231 224 185 220 231 231 264 273 221 227 236 248 248 243 249 253 254 252 247 252 252
152 142 141 185 201 199 192 187 175 170 156 151 220 230 206 214 236 185 171 125 130 151 168 218 213 175 189 202 215 195 185 193 189 195 204 190 207 190 183 199 198 202 212 202 220 261 174 225 285 173 190 187 103 118 170 251 245 182 196 103 88 218 224 150 211 227 188 226 235 203 217 213 205 234 271 218 219 219 232 245 252 255 249 249 253 253 256 243
124 111 48 214 206 200 184 177 171 171 184 192 221 231 204 199 223 197 196 122 117 148 191 221 213 201 216 195 200 196 192 197 184 189 205 196 213 191 183 190 194 203 208 192 198 247 156 200 272 315 150 149 129 155 200 213 210 144 180 97 105 222 231 194 206 231 198 216 235 222 217 216 221 226 212 213 217 208 222 238 243 246 243 242 253 261 251 226
106 113 328 224 197 189 172 167 165 177 205 208 229 234 200 203 210 204 204 189 142 143 203 217 196 200 226 191 182 212 205 204 189 188 205 188 197 210 191 187 190 197 193 186 203 240 96 203 241 308 340 174 166 186 206 207 190 174 201 187 171 192 288 277 229 220 179 201 228 234 235 243 246 215 191 207 210 196 210 224 229 243 252 243 242 252 253 231
65 112 344 258 184 172 158 160 175 201 203 230 252 247 268 249 191 197 202 203 210 213 192 195 187 203 214 202 206 199 205 221 206 198 210 198 201 223 202 193 187 176 168 186 212 193 139 199 202 180 178 193 198 196 211 210 180 177 203 202 193 201 219 268 233 201 169 201 213 226 248 259 255 221 204 222 227 214 221 232 243 259 269 256 264 284 280 166
41 130 353 311 176 164 151 176 203 164 207 237 241 228 228 207 183 197 207 204 207 218 84 101 185 204 213 225 221 171 150 253 231 212 214 212 211 221 220 198 175 158 161 186 201 193 148 135 150 202 209 202 228 289 357 164 156 179 214 209 190 195 209 228 237 209 192 225 215 223 258 267 264 239 236 254 259 256 253 250 258 265 263 271 306 339 31 110
35 157 353 11 173 160 139 223 206 188 234 245 8 273 232 205 192 190 206 207 197 191 158 153 200 203 204 226 212 174 175 197 229 229 233 230 224 219 189 167 154 153 166 184 187 193 212 124 147 249 295 294 297 321 358 31 106 192 224 205 187 197 206 220 237 171 146 222 214 229 248 263 290 270 255 268 276 282 273 242 240 260 283 300 305 26 94 105
38 207 350 342 179 165 142 210 203 226 249 294 354 257 279 283 194 183 203 208 194 170 167 163 213 195 167 145 132 186 189 190 215 226 232 252 247 207 148 155 163 167 179 186 174 178 196 184 174 192 249 246 247 250 263 312 196 205 218 210 203 201 195 184 14 161 285 234 200 213 236 239 282 311 332 338 340 331 314 287 239 240 233 161 150 119 150 141
32 18 330 346 180 166 174 222 169 212 242 261 246 236 247 256 213 199 207 201 184 165 172 198 199 156 144 145 140 191 211 218 232 224 225 244 269 236 162 166 174 186 203 181 150 161 190 196 186 193 202 204 209 218 213 188 195 201 214 213 208 199 188 186 225 228 232 235 191 198 233 257 300 325 337 351 3 351 335 344 346 281 186 159 157 168 187 177
53 7 317 343 12 70 300 313 131 176 215 233 240 225 206 220 266 308 198 195 198 155 136 196 170 139 160 171 166 199 216 222 243 253 242 224 225 286 198 175 177 188 194 160 145 152 177 200 204 208 218 219 212 210 144 119 148 199 207 204 205 200 193 196 228 233 229 255 244 212 221 285 296 295 296 312 351 343 322 330 333 336 349 227 189 179 196 207
63 180 176 332 352 30 295 292 208 213 218 201 227 217 194 201 225 334 190 218 216 166 96 11 170 169 187 175 175 212 205 199 218 245 255 228 221 296 258 190 186 178 161 150 161 143 116 207 214 215 228 230 216 192 157 144 166 196 205 209 207 194 188 197 218 227 224 240 247 229 209 250 262 260 274 288 290 283 274 257 250 230 192 211 201 181 211 226
12 199 185 183 244 217 220 233 215 222 230 209 243 246 198 193 190 185 169 355 246 198 168 274 233 197 183 158 158 200 183 187 215 227 239 226 210 232 209 201 210 182 158 157 180 146 132 221 215 211 234 238 220 199 190 172 183 195 200 210 206 185 187 202 216 225 219 224 247 241 205 230 250 251 256 272 279 275 261 236 213 178 171 187 182 182 206 216
28 244 276 230 239 248 244 232 207 212 217 206 224 247 209 204 207 202 135 104 228 232 202 219 231 210 189 163 157 183 180 192 223 220 212 210 206 197 175 180 234 205 176 175 190 175 179 226 208 199 234 243 226 212 201 182 199 212 206 209 202 188 193 203 214 223 221 223 244 247 217 228 249 247 236 254 269 255 253 247 153 163 188 195 186 190 206 212
75 244 285 290 270 252 253 251 206 207 212 202 217 244 221 213 212 208 176 165 188 223 216 219 218 203 196 186 188 211 207 200 230 230 186 196 215 207 203 194 167 174 190 190 199 198 203 221 185 167 223 245 220 212 214 193 198 222 226 221 208 195 199 207 213 218 219 225 236 242 239 244 255 246 240 258 116 130 185 227 206 207 209 203 192 195 206 210
226 219 201 230 275 248 233 245 199 208 222 207 218 244 243 230 217 210 230 208 189 186 202 211 204 181 197 202 206 221 215 204 223 225 179 201 230 224 235 219 146 147 200 206 184 162 190 225 94 126 208 241 208 203 219 215 221 257 258 235 206 193 202 210 211 209 207 211 226 237 243 249 248 235 236 244 212 185 200 205 218 226 210 196 197 201 205 209
261 243 198 187 262 257 231 245 191 202 224 209 210 212 215 226 212 199 233 249 219 206 202 202 192 169 197 216 218 222 215 205 215 211 171 215 242 239 241 234 170 163 189 192 164 149 170 177 98 143 204 250 213 183 195 188 255 263 248 222 203 199 204 210 216 216 207 201 212 223 227 238 238 218 220 234 225 219 224 210 217 229 211 193 204 210 211 214